SCP
0 0 0 0 0 0 0 0 0 0 0 0 0 1 1 1 1 1 0 0 1 1 1 1 1 1 1 2 2 2 2 2 2 2 1 1 1 1 1 1 1 1 1 1
0 0 0 0 0 0 0 0 0 0 0 0 0 1 1 1 1 1 0 0 1 1 1 1 1 1 1 2 2 2 2 2 2 2 1 1 1 1 1 1 1 1 1 1
0 0 0 0 0 0 0 0 0 0 0 0 0 1 1 1 1 1 1 1 1 1 1 1 1 1 1 2 2 2 2 2 2 2 1 1 1 1 1 1 1 1 1 1
0 0 0 0 0 0 0 0 0 0 0 0 0 1 1 1 1 1 1 1 1 1 1 1 1 1 1 1 2 2 2 2 2 2 1 1 1 1 1 1 1 1 1 1
0 0 0 0 0 0 0 0 0 0 0 0 0 1 1 1 1 1 1 1 1 1 1 1 1 1 1 1 2 2 2 2 2 2 1 1 1 1 1 1 1 1 1 1
0 0 0 0 0 0 0 0 0 0 0 0 0 1 1 1 1 1 1 1 1 1 1 1 1 1 1 1 1 2 2 1 1 1 1 1 2 2 1 1 1 1 1 1
0 0 0 0 0 0 0 0 0 0 0 0 0 1 1 1 1 1 1 1 1 1 1 1 1 1 1 1 1 1 1 1 1 1 1 1 2 2 2 1 1 1 1 1
0 0 0 0 0 0 0 0 0 0 0 0 0 1 1 1 1 1 1 1 1 1 1 1 1 1 2 2 2 1 1 1 1 1 1 1 2 2 2 1 1 1 1 1
0 0 0 0 0 0 0 0 0 0 0 0 0 1 1 1 1 1 1 1 1 1 1 1 1 1 2 2 2 2 1 1 1 1 1 1 1 2 2 1 1 1 1 1
0 0 0 0 0 0 0 0 0 0 0 0 1 1 1 1 1 1 1 1 1 1 1 1 1 1 1 2 2 2 1 1 1 1 1 1 1 1 1 1 1 1 1 1
0 0 0 0 0 0 0 0 0 0 0 0 1 1 1 1 1 1 1 1 1 1 1 1 1 1 1 1 1 1 1 1 1 1 1 1 1 1 1 1 1 1 0 0
0 0 0 0 0 0 0 0 0 0 0 0 1 1 1 1 1 1 1 1 1 1 1 1 1 1 1 1 1 1 1 1 1 1 1 1 1 1 0 0 0 0 0 0
0 0 0 0 0 0 0 0 0 0 0 0 1 1 1 1 1 1 1 1 1 1 1 1 1 1 1 1 1 1 1 1 1 1 1 1 1 1 0 0 0 0 0 0
0 0 0 0 0 0 0 0 0 0 0 0 1 1 0 0 1 1 1 1 1 1 1 1 1 1 1 1 1 1 1 1 1 1 1 1 1 1 0 0 0 0 0 0
0 0 0 0 0 0 0 0 0 0 0 1 1 1 0 0 1 1 1 1 1 1 1 1 1 1 1 1 1 1 1 0 1 1 1 1 1 1 0 1 1 1 0 0
0 0 0 0 0 0 0 0 0 0 0 1 1 1 1 1 1 1 1 1 1 1 1 1 1 1 1 1 1 0 0 0 0 0 1 1 1 1 1 1 1 1 0 0
0 0 0 0 0 0 0 0 0 0 0 0 0 1 1 1 1 1 1 1 1 1 1 1 1 0 0 0 0 0 0 0 0 0 0 1 1 1 1 1 1 1 0 0
0 0 0 0 0 0 0 0 0 0 0 0 1 1 1 1 1 1 1 0 0 1 0 0 0 0 0 0 0 0 0 0 0 0 0 0 0 0 0 0 0 0 0 0
0 0 0 0 0 0 0 0 1 1 0 1 1 1 1 1 1 1 1 0 0 0 0 0 0 0 0 0 0 0 0 0 0 0 0 0 0 0 0 0 0 0 0 0
0 0 0 0 0 0 0 1 1 1 0 0 1 1 1 1 1 1 0 0 0 0 0 0 0 0 0 0 0 0 0 0 0 0 0 0 0 0 0 0 0 0 0 0
0 0 0 0 0 0 0 0 0 0 0 0 0 0 0 1 0 0 0 0 0 0 0 0 0 0 0 0 0 0 0 0 0 0 0 0 0 0 0 0 0 0 0 0
0 0 0 0 0 0 0 0 0 0 0 0 0 0 0 0 0 0 0 0 0 0 0 0 0 0 0 0 0 0 0 0 0 0 0 0 0 0 0 0 0 0 0 0
0 0 0 0 0 0 0 0 0 0 0 0 0 0 0 0 0 0 0 0 0 0 0 0 0 0 0 0 0 0 0 0 0 0 0 0 0 0 0 0 0 0 0 0
0 0 0 0 0 0 0 0 0 0 0 0 0 0 0 0 0 0 0 0 0 0 0 0 0 0 0 0 0 0 0 0 0 0 0 0 0 0 0 0 0 0 0 0
0 0 0 0 0 0 0 0 0 0 0 0 0 0 0 0 0 0 0 0 0 0 0 0 0 0 0 0 0 0 0 0 0 0 0 0 0 0 0 0 0 0 0 0
0 0 0 0 0 0 0 0 0 0 0 0 0 0 0 0 0 0 0 0 0 0 0 0 0 0 0 0 0 0 0 0 0 0 0 0 0 0 0 0 0 0 0 0
0 0 0 0 0 0 0 0 0 0 0 0 0 0 0 0 0 0 0 0 0 0 0 0 0 0 0 0 0 0 0 0 0 0 0 0 0 0 0 0 0 0 0 0
Wind_Speed
10 11 10 8 8 9 9 8 7 3 2 4 3 2 4 6 7 6 6 4 4 5 4 4 4 3 2 2 2 1 1 2 2 2 1 1 1 1 1 1 1 1 0 0
11 11 11 10 9 8 9 7 7 3 1 4 3 2 5 6 5 5 4 4 3 4 4 3 3 3 2 2 2 1 1 1 1 2 2 2 2 1 1 1 1 1 1 0
11 11 12 11 8 7 8 7 6 2 2 4 2 4 5 5 4 4 4 4 3 3 3 3 3 2 2 2 2 2 1 2 2 2 2 2 2 2 1 1 1 1 1 1
10 10 13 8 6 6 6 6 4 1 3 4 5 6 6 6 5 4 4 3 3 2 2 2 3 2 1 1 2 2 2 2 2 3 3 2 2 2 2 2 2 2 2 2
8 9 10 7 5 4 5 4 4 2 2 3 3 5 7 7 6 4 4 4 3 2 2 3 2 2 1 1 1 1 2 2 2 2 2 2 3 2 2 2 2 3 3 3
9 11 10 3 2 3 6 2 4 3 2 2 1 0 4 6 6 5 5 3 3 3 4 3 3 1 0 1 1 1 2 2 2 2 2 3 3 2 2 2 3 4 4 3
11 11 6 2 3 4 5 2 6 5 4 4 4 4 6 6 6 5 5 4 4 3 3 2 1 1 0 1 1 2 2 2 2 2 3 4 3 3 3 3 4 4 4 3
8 10 5 4 2 3 4 4 4 5 4 5 5 6 7 7 5 4 3 3 3 3 2 2 2 1 1 2 2 2 2 3 3 3 4 4 3 3 4 3 4 4 3 3
3 2 2 4 5 5 3 2 3 4 4 4 4 5 5 5 4 3 2 2 2 1 1 2 2 2 2 3 3 3 3 3 4 4 4 4 3 4 3 3 3 3 3 3
2 1 2 3 3 4 4 4 3 4 3 4 3 3 3 3 3 2 2 2 1 1 1 2 2 2 2 3 3 4 4 4 4 4 4 3 2 3 2 2 2 2 2 2
3 1 1 2 3 3 3 3 2 2 2 3 2 2 2 2 2 2 2 2 2 2 2 2 2 3 3 3 3 4 4 4 5 5 3 2 2 2 2 1 1 2 2 2
3 4 3 3 3 3 3 3 4 4 2 2 2 2 2 1 1 1 2 1 1 2 2 2 2 2 3 3 3 4 5 5 5 4 3 2 2 1 1 1 2 2 2 3
4 5 5 5 4 4 4 4 4 4 3 1 2 1 1 1 1 1 1 1 2 2 2 2 2 2 2 3 3 4 5 5 5 4 3 2 2 1 1 1 1 2 3 3
4 5 5 5 5 5 5 5 4 3 3 3 3 2 2 1 1 1 2 2 1 1 2 2 3 3 3 3 3 4 5 4 4 4 3 3 2 2 2 2 1 1 2 4
3 4 4 4 5 4 4 4 3 3 3 3 2 2 2 2 2 1 2 2 2 2 2 2 3 4 4 4 4 4 4 4 3 3 3 3 2 2 2 2 2 1 1 1
4 4 4 4 4 4 5 4 3 3 2 2 2 2 2 2 2 2 2 2 2 3 3 3 3 4 4 4 4 4 3 4 4 4 4 3 2 2 2 2 2 2 2 1
4 4 4 4 4 4 4 4 3 3 2 2 1 1 2 2 2 2 2 3 3 2 3 3 4 4 4 4 5 4 4 3 4 4 4 3 3 2 2 2 2 2 2 1
2 3 4 3 4 4 4 4 4 3 2 2 1 1 1 2 2 2 3 4 3 3 2 3 3 4 4 4 4 4 5 4 3 3 3 3 2 3 2 2 3 3 2 2
2 3 3 3 3 3 4 3 3 3 3 2 1 1 1 1 2 3 3 3 3 3 3 4 4 5 4 4 4 4 5 5 4 3 2 2 3 3 3 3 3 3 2 1
2 2 2 2 3 3 3 3 3 3 3 3 3 2 2 2 2 3 3 3 3 3 2 3 4 4 4 3 4 5 5 6 4 3 2 2 3 3 3 3 3 3 2 1
2 2 2 2 2 2 3 2 3 3 3 4 4 4 3 2 2 2 3 3 2 2 2 3 3 3 3 4 5 5 5 5 4 3 3 3 3 3 3 2 2 2 2 2
2 3 2 2 3 2 2 2 2 3 4 4 4 4 3 3 2 2 2 2 2 2 2 3 2 3 5 6 5 5 4 4 3 3 3 3 3 3 3 3 2 2 2 2
2 3 3 3 3 3 3 3 3 3 3 3 3 3 3 3 3 3 3 1 2 2 3 3 3 3 5 5 4 4 3 3 2 3 3 3 3 2 2 2 2 2 2 1
2 3 3 3 3 3 3 3 3 3 3 3 3 2 3 2 2 2 1 0 1 2 3 2 3 4 5 4 3 3 3 3 2 2 2 2 2 2 2 2 2 2 2 1
2 3 3 3 3 3 3 3 3 3 2 1 2 1 1 1 2 3 2 1 2 3 3 2 4 5 4 3 3 3 3 3 3 3 3 3 3 2 2 2 3 2 2 2
3 3 2 3 2 3 3 2 2 2 1 1 1 1 1 1 2 2 3 3 4 4 4 2 2 3 2 2 2 3 3 3 3 3 3 2 3 3 3 3 4 3 2 3
3 2 2 2 2 2 2 3 2 2 1 1 2 1 1 1 2 2 3 3 3 3 3 3 2 2 2 3 3 3 3 3 3 3 3 3 3 3 3 3 3 3 3 3
Wind_Direction
277 278 279 281 287 287 283 279 275 286 81 108 129 175 121 111 113 116 118 128 124 126 132 142 145 138 138 145 120 112 133 160 153 153 163 160 142 151 153 198 212 208 221 306
274 271 275 273 266 265 274 276 274 281 21 114 137 100 110 114 115 119 117 121 120 132 139 148 142 142 151 157 148 137 171 181 172 179 175 179 195 187 185 209 239 251 257 257
273 273 270 263 264 261 272 277 277 277 108 124 112 102 110 105 108 109 109 101 92 110 131 138 142 138 164 166 154 163 199 201 197 207 202 195 219 202 204 216 224 234 239 223
272 273 267 280 290 280 278 290 294 127 118 129 130 116 110 108 97 84 82 83 78 79 110 125 131 137 173 190 175 189 210 218 216 212 213 205 216 228 222 223 228 235 235 225
273 272 270 270 285 312 306 307 345 50 75 68 80 108 96 84 86 82 72 70 69 68 65 75 86 131 160 215 202 220 230 231 232 227 227 231 228 230 235 239 249 247 243 236
262 268 268 274 300 311 293 285 3 12 30 35 87 202 91 77 76 72 72 75 62 58 58 66 37 37 77 297 291 288 280 270 263 244 236 239 235 233 231 232 243 250 249 241
255 263 267 306 286 280 277 38 16 6 20 45 53 62 83 75 67 73 69 62 68 71 63 55 33 23 311 303 318 332 327 309 287 261 250 239 227 229 229 232 241 250 250 239
256 260 265 354 337 16 58 40 14 13 35 63 71 88 90 84 75 77 75 67 57 65 62 44 29 28 342 324 327 329 315 300 288 275 269 252 222 232 233 231 238 242 246 249
296 302 16 32 58 58 51 40 14 16 35 64 66 84 89 91 86 72 69 66 57 58 54 40 26 11 348 336 329 310 295 287 282 273 264 258 238 235 234 231 245 248 236 244
266 247 352 5 25 52 37 26 7 357 12 63 58 65 73 82 80 62 43 37 11 17 33 23 9 355 351 331 322 308 294 292 283 275 267 261 249 247 243 246 247 260 272 274
277 341 330 345 10 25 29 6 341 336 8 66 68 63 58 61 69 55 31 9 3 7 9 4 4 352 351 337 319 307 299 291 283 275 273 260 243 260 261 258 224 246 278 288
325 356 332 349 358 356 354 336 342 350 3 39 59 47 45 41 39 23 348 9 6 1 352 3 360 341 334 327 322 309 299 292 286 278 266 258 231 230 52 181 162 194 235 252
345 346 351 341 336 339 330 326 339 346 340 7 47 42 47 45 35 9 341 360 349 340 345 343 324 318 318 318 310 301 297 300 297 292 284 271 258 236 233 212 206 244 250 244
5 354 328 321 331 338 330 324 332 344 0 26 36 22 14 11 12 350 338 336 342 334 320 319 321 319 318 313 303 296 293 293 292 296 293 287 277 261 252 247 245 257 251 232
316 307 306 318 314 313 316 312 319 348 14 20 29 19 6 342 336 350 344 328 322 314 316 320 321 322 326 316 311 304 303 307 306 300 292 290 292 287 280 275 278 282 267 239
292 296 302 306 306 305 306 311 321 336 359 4 13 8 358 332 332 0 333 314 325 330 333 329 327 323 321 315 309 304 304 303 295 292 286 285 280 279 284 286 287 290 278 274
287 295 302 309 312 307 307 309 319 335 343 350 354 350 337 332 335 347 334 325 333 345 336 335 329 324 319 318 314 308 302 289 269 274 279 279 274 275 279 287 289 280 271 254
294 298 301 298 302 315 317 318 327 330 338 349 341 318 328 342 330 332 330 325 325 331 331 326 325 323 321 320 320 310 303 292 271 268 276 274 282 277 268 264 266 270 262 242
292 301 313 325 332 326 325 331 327 329 336 332 324 313 324 317 314 315 323 317 308 307 331 341 327 310 310 327 319 295 291 291 288 282 278 275 269 270 272 269 270 266 278 292
296 307 317 330 330 323 326 322 324 327 326 318 310 305 304 295 302 312 306 294 289 300 321 322 306 303 307 326 313 302 298 297 296 299 295 284 286 284 280 285 290 295 297 299
315 312 319 330 332 320 310 314 316 312 309 304 301 296 295 296 293 290 286 288 302 326 307 295 290 301 318 325 300 297 301 303 304 308 311 311 310 304 297 294 304 307 303 296
341 339 340 338 326 312 313 307 297 289 291 293 295 300 305 304 291 283 279 284 300 323 306 302 306 328 325 307 299 302 304 306 312 314 308 306 307 310 312 310 312 312 311 314
347 341 334 324 315 308 306 303 300 294 292 295 293 288 291 297 291 285 282 287 315 326 301 312 322 315 308 298 301 305 312 306 304 305 305 302 294 291 293 299 310 311 312 340
341 335 324 318 309 297 292 298 300 297 286 274 271 273 281 277 282 288 311 347 299 278 294 300 277 286 285 290 302 315 318 314 309 308 313 312 308 323 335 331 321 318 321 341
325 314 315 309 296 294 288 278 275 270 274 287 296 301 288 299 310 322 322 308 281 282 297 272 254 258 266 299 310 314 315 324 327 330 331 332 339 353 351 341 342 351 12 23
291 289 305 298 302 299 295 290 286 286 286 289 290 281 285 297 307 303 300 299 302 295 296 296 274 249 267 294 308 317 322 319 313 316 325 333 346 351 352 359 7 4 7 23
267 277 284 283 280 281 290 298 298 297 306 310 310 300 297 303 293 292 293 293 292 292 301 307 316 326 334 337 339 343 341 339 342 345 357 4 4 1 0 7 14 17 16 24